Weather History for Allentown, PA

Change the Weather History Date:

Friday, February 1, 2013

  Actual Average (KABE) Record (KABE)
Temperature  
Mean Temperature 26 °F 28 °F  
Max Temperature 30 °F 37 °F 65 °F (1989)
Min Temperature 21 °F 20 °F -5 °F (1935)
Degree Days  
Heating Degree Days 40 37  
Month to date heating degree days 37  
Since 1 July heating degree days 3387  
Cooling Degree Days 0 0  
Month to date cooling degree days 0  
Year to date cooling degree days 0  
Moisture  
Dew Point 7 °F    
Average Humidity 44    
Maximum Humidity 59    
Minimum Humidity 29    
Precipitation  
Precipitation 0.00 in 0.10 in 1.31 in (2008)
Month to date precipitation 0.10  
Year to date precipitation 3.13  
Snow  
Snow 0.00 in 0.40 in 7.20 in (1957)
Month to date snowfall 0.4  
Since 1 July snowfall 16.3  
Snow Depth -    
Sea Level Pressure  
Sea Level Pressure 29.99 in    
Wind  
Wind Speed 10 mph (West)    
Max Wind Speed 23 mph    
Max Gust Speed 33 mph    
Visibility 10 miles    
Events      
T = Trace of Precipitation, MM = Missing Value Source: NWS Daily Summary

Daily Weather History Graph

Daily Weather History Graph

Search for Another Location

Airport:

Trip Planner

Search our weather history database for the weather conditions in past years. The results will help you decide how hot, cold, wet, or windy it might be!

Date:

Astronomy

Feb. 01, 2013 Rise Set
Actual Time 7:11 AM EST 5:20 PM EST
Civil Twilight 6:42 AM EST 5:49 PM EST
Nautical Twilight 6:09 AM EST 6:21 PM EST
Astronomical Twilight 5:37 AM EST 6:53 PM EST
Moon 11:26 PM EST (2/1) 9:41 AM EST (2/1)
Length of Visible Light 11h 06m
Length of Day
10h 08m
Waning Gibbous, 70% of the Moon is Illuminated
Feb 1
Waning Gibbous
Feb 3
Last Quarter
Feb 10
New
Feb 17
First Quarter
Feb 25
Full

Hourly Weather History & Observations

Time (EST) Temp. Windchill Dew Point Humidity Pressure Visibility Wind Dir Wind Speed Gust Speed Precip Events Conditions
12:15 AM 26.6 °F 19.1 °F 12.2 °F 55% 29.83 in 10.0 mi SW 6.9 mph - N/A   Scattered Clouds
12:35 AM 28.4 °F 21.2 °F 12.2 °F 51% 29.83 in 10.0 mi SW 6.9 mph - N/A   Mostly Cloudy
12:55 AM 28.4 °F 19.7 °F 10.4 °F 47% 29.82 in 10.0 mi WSW 9.2 mph - N/A   Mostly Cloudy
1:15 AM 28.4 °F 19.7 °F 10.4 °F 47% 29.82 in 10.0 mi SW 9.2 mph - N/A   Scattered Clouds
1:35 AM 28.4 °F 19.1 °F 10.4 °F 47% 29.82 in 10.0 mi WSW 10.4 mph 16.1 mph N/A   Scattered Clouds
1:55 AM 28.4 °F 19.7 °F 10.4 °F 47% 29.82 in 10.0 mi SW 9.2 mph - N/A   Clear
2:15 AM 28.4 °F 20.4 °F 10.4 °F 47% 29.81 in 10.0 mi WSW 8.1 mph - N/A   Clear
2:35 AM 28.4 °F 19.1 °F 10.4 °F 47% 29.81 in 10.0 mi WSW 10.4 mph - N/A   Clear
2:55 AM 26.6 °F 19.1 °F 12.2 °F 55% 29.82 in 10.0 mi SW 6.9 mph - N/A   Clear
3:15 AM 26.6 °F 17.5 °F 12.2 °F 55% 29.83 in 10.0 mi WSW 9.2 mph 16.1 mph N/A   Clear
3:35 AM 26.6 °F 17.5 °F 12.2 °F 55% 29.83 in 10.0 mi WSW 9.2 mph - N/A   Clear
3:55 AM 26.6 °F 18.2 °F 14.0 °F 59% 29.83 in 10.0 mi SW 8.1 mph - N/A   Clear
4:15 AM 26.6 °F 18.2 °F 12.2 °F 55% 29.83 in 10.0 mi WSW 8.1 mph - N/A   Mostly Cloudy
4:35 AM 28.4 °F 21.2 °F 12.2 °F 51% 29.83 in 10.0 mi WSW 6.9 mph 16.1 mph N/A   Mostly Cloudy
4:55 AM 28.4 °F 21.2 °F 12.2 °F 51% 29.83 in 10.0 mi SW 6.9 mph - N/A   Mostly Cloudy
5:15 AM 28.4 °F 20.4 °F 12.2 °F 51% 29.84 in 10.0 mi WSW 8.1 mph - N/A   Overcast
5:35 AM 26.6 °F 20.0 °F 12.2 °F 55% 29.84 in 10.0 mi WSW 5.8 mph - N/A   Mostly Cloudy
5:55 AM 26.6 °F 21.2 °F 14.0 °F 59% 29.85 in 10.0 mi WSW 4.6 mph - N/A   Scattered Clouds
6:15 AM 26.6 °F 22.6 °F 14.0 °F 59% 29.85 in 10.0 mi West 3.5 mph - N/A   Clear
6:35 AM 26.6 °F 21.2 °F 14.0 °F 59% 29.86 in 10.0 mi WNW 4.6 mph - N/A   Clear
6:55 AM 26.6 °F 21.2 °F 14.0 °F 59% 29.85 in 10.0 mi WNW 4.6 mph - N/A   Clear
7:15 AM 26.6 °F 21.2 °F 14.0 °F 59% 29.86 in 10.0 mi WNW 4.6 mph - N/A   Clear
7:35 AM 26.6 °F 19.1 °F 14.0 °F 59% 29.86 in 10.0 mi West 6.9 mph - N/A   Clear
7:55 AM 26.6 °F 16.8 °F 12.2 °F 55% 29.87 in 10.0 mi WNW 10.4 mph - N/A   Scattered Clouds
8:15 AM 28.4 °F 19.1 °F 12.2 °F 51% 29.89 in 10.0 mi WNW 10.4 mph 18.4 mph N/A   Scattered Clouds
8:35 AM 26.6 °F 15.7 °F 10.4 °F 51% 29.90 in 10.0 mi WNW 12.7 mph 17.3 mph N/A   Mostly Cloudy
8:55 AM 26.6 °F 16.2 °F 8.6 °F 47% 29.91 in 10.0 mi WNW 11.5 mph 20.7 mph N/A   Overcast
9:15 AM 26.6 °F 14.7 °F 6.8 °F 43% 29.92 in 10.0 mi NW 15.0 mph 27.6 mph N/A   Mostly Cloudy
9:35 AM 26.6 °F 14.3 °F 6.8 °F 43% 29.93 in 10.0 mi WNW 16.1 mph 21.9 mph N/A   Mostly Cloudy
9:55 AM 26.6 °F 14.3 °F 5.0 °F 40% 29.93 in 10.0 mi NW 16.1 mph 25.3 mph N/A   Scattered Clouds
10:15 AM 28.4 °F 16.6 °F 6.8 °F 40% 29.93 in 10.0 mi West 16.1 mph 24.2 mph N/A   Clear
10:35 AM 28.4 °F 16.2 °F 6.8 °F 40% 29.94 in 10.0 mi WNW 17.3 mph 24.2 mph N/A   Scattered Clouds
10:55 AM 28.4 °F 16.6 °F 5.0 °F 37% 29.94 in 10.0 mi NW 16.1 mph 24.2 mph N/A   Mostly Cloudy
11:15 AM 28.4 °F 17.5 °F 3.2 °F 34% 29.95 in 10.0 mi WNW 13.8 mph 21.9 mph N/A   Mostly Cloudy
11:35 AM 28.4 °F 17.0 °F 5.0 °F 37% 29.95 in 10.0 mi West 15.0 mph 26.5 mph N/A   Overcast
11:55 AM 28.4 °F 15.8 °F 3.2 °F 34% 29.96 in 10.0 mi NW 18.4 mph 27.6 mph N/A   Mostly Cloudy
12:15 PM 28.4 °F 16.2 °F 3.2 °F 34% 29.96 in 10.0 mi WNW 17.3 mph 21.9 mph N/A   Mostly Cloudy
12:35 PM 28.4 °F 15.1 °F 3.2 °F 34% 29.96 in 10.0 mi West 20.7 mph 31.1 mph N/A   Mostly Cloudy
12:55 PM 30.2 °F 16.8 °F 5.0 °F 34% 29.97 in 10.0 mi NW 23.0 mph 33.4 mph N/A   Mostly Cloudy
1:15 PM 28.4 °F 15.8 °F 1.4 °F 31% 29.97 in 10.0 mi NW 18.4 mph 33.4 mph N/A   Mostly Cloudy
1:35 PM 28.4 °F 17.0 °F 1.4 °F 31% 29.98 in 10.0 mi West 15.0 mph 24.2 mph N/A   Mostly Cloudy
1:55 PM 28.4 °F 16.6 °F 3.2 °F 34% 29.99 in 10.0 mi WNW 16.1 mph 25.3 mph N/A   Mostly Cloudy
2:15 PM 28.4 °F 15.1 °F 3.2 °F 34% 30.00 in 10.0 mi West 20.7 mph 29.9 mph N/A   Mostly Cloudy
2:35 PM 28.4 °F 17.5 °F 1.4 °F 31% 30.01 in 10.0 mi WNW 13.8 mph 28.8 mph N/A   Mostly Cloudy
2:55 PM 30.2 °F 20.2 °F 3.2 °F 32% 30.01 in 10.0 mi West 12.7 mph 24.2 mph N/A   Mostly Cloudy
3:15 PM 30.2 °F 19.3 °F 1.4 °F 29% 30.02 in 10.0 mi West 15.0 mph 21.9 mph N/A   Scattered Clouds
3:35 PM 28.4 °F 17.5 °F 3.2 °F 34% 30.03 in 10.0 mi West 13.8 mph 25.3 mph N/A   Scattered Clouds
3:55 PM 28.4 °F 16.6 °F 1.4 °F 31% 30.05 in 10.0 mi West 16.1 mph 25.3 mph N/A   Scattered Clouds
4:15 PM 28.4 °F 15.8 °F 6.8 °F 40% 30.06 in 10.0 mi West 18.4 mph 27.6 mph N/A   Scattered Clouds
4:35 PM 26.6 °F 14.3 °F 5.0 °F 40% 30.07 in 10.0 mi West 16.1 mph 26.5 mph N/A   Scattered Clouds
4:55 PM 26.6 °F 15.7 °F 3.2 °F 37% 30.08 in 10.0 mi West 12.7 mph 24.2 mph N/A   Clear
5:15 PM 26.6 °F 14.3 °F 3.2 °F 37% 30.10 in 10.0 mi West 16.1 mph 25.3 mph N/A   Scattered Clouds
5:35 PM 26.6 °F 16.8 °F 5.0 °F 40% 30.11 in 10.0 mi West 10.4 mph 20.7 mph N/A   Scattered Clouds
5:55 PM 26.6 °F 16.2 °F 3.2 °F 37% 30.12 in 10.0 mi West 11.5 mph 18.4 mph N/A   Clear
6:15 PM 26.6 °F 16.8 °F 3.2 °F 37% 30.14 in 10.0 mi West 10.4 mph 21.9 mph N/A   Clear
6:35 PM 24.8 °F 13.4 °F 3.2 °F 40% 30.16 in 10.0 mi West 12.7 mph 20.7 mph N/A   Clear
6:55 PM 24.8 °F 12.9 °F 3.2 °F 40% 30.17 in 10.0 mi WNW 13.8 mph 18.4 mph N/A   Clear
7:15 PM 24.8 °F 14.0 °F 3.2 °F 40% 30.18 in 10.0 mi West 11.5 mph 17.3 mph N/A   Clear
7:35 PM 23.0 °F 11.1 °F 3.2 °F 43% 30.19 in 10.0 mi West 12.7 mph 19.6 mph N/A   Clear
7:55 PM 23.0 °F 12.4 °F 3.2 °F 43% 30.19 in 10.0 mi West 10.4 mph 21.9 mph N/A   Clear
8:15 PM 23.0 °F 11.7 °F 3.2 °F 43% 30.20 in 10.0 mi West 11.5 mph - N/A   Clear
8:35 PM 23.0 °F 12.4 °F 3.2 °F 43% 30.22 in 10.0 mi West 10.4 mph 20.7 mph N/A   Clear
8:55 PM 23.0 °F 12.4 °F 3.2 °F 43% 30.22 in 10.0 mi West 10.4 mph - N/A   Clear
9:15 PM 23.0 °F 13.9 °F 5.0 °F 46% 30.23 in 10.0 mi West 8.1 mph 17.3 mph N/A   Clear
9:35 PM 23.0 °F 11.7 °F 5.0 °F 46% 30.24 in 10.0 mi West 11.5 mph 18.4 mph N/A   Clear
9:55 PM 23.0 °F 11.7 °F 3.2 °F 43% 30.24 in 10.0 mi West 11.5 mph 18.4 mph N/A   Clear
10:15 PM 21.2 °F 12.6 °F 3.2 °F 46% 30.25 in 10.0 mi West 6.9 mph - N/A   Clear
10:35 PM 21.2 °F 10.1 °F 3.2 °F 46% 30.25 in 10.0 mi West 10.4 mph 18.4 mph N/A   Clear
10:55 PM 21.2 °F 13.6 °F 3.2 °F 46% 30.26 in 10.0 mi West 5.8 mph - N/A   Clear
11:15 PM 21.2 °F 10.9 °F 3.2 °F 46% 30.26 in 10.0 mi West 9.2 mph 19.6 mph N/A   Clear
11:35 PM 21.2 °F 11.7 °F 5.0 °F 50% 30.27 in 10.0 mi West 8.1 mph 17.3 mph N/A   Clear
11:55 PM 21.2 °F 12.6 °F 5.0 °F 50% 30.27 in 10.0 mi WSW 6.9 mph - N/A   Clear